Flag for Australia Weather past 2 weeks in Adelaide, South Australia, Australia

Now
48 °F

Passing clouds.


Feels Like: 46 °F
Forecast: 52 / 71 °F
Wind: 5 mph from East

Location: Adelaide Airport

Current Time: Mar 28, 2015 at 8:17:09 AM

Latest Report: Mar 28, 2015 at 7:30 AM


Visibility: N/A

Pressure: 30.27 "Hg

Humidity: 87%

Dew point: 45 °F

Location of AdelaideLocation

Historic Weather in Adelaide — Graph

°F

Adelaide temperature yesterday

Maximum temperature yesterday: 66 °F (at 12:30 PM)
Minimum temperature yesterday: 55 °F (at 3:30 AM)
Average temperature yesterday: 60 °F

Past Weeks' High & Low Weather Summary

 TemperatureHumidityPressure
High90 °F (Mar 16, 3:00 PM)94% (Mar 25, 6:30 PM)30.39 "Hg (Mar 25, 6:30 PM)
Low48 °F (Mar 28, 5:00 AM)10% (Mar 22, 11:30 PM)29.56 "Hg (Mar 17, 12:00 AM)
Average66 °F55%30.01 "Hg
* Reported Mar 13 6:30 AM — Mar 28 6:30 AM, Adelaide, Weather by CustomWeather, © 2015

Note: Actual official high and low records may vary slightly from our data, if they occured in-between our weather recording intervals... More about our weather records

Advertising

Adelaide weather history for previous 24 hours

 ConditionsComfort  
Time TempWeatherWind HumidityBarometerVisibility
6:30 AM
Sat, Mar 28
48 °FClear.5 mph87%30.27 "Hg10 mi
6:00 AM48 °FClear.5 mph87%30.27 "Hg10 mi
5:30 AM48 °FClear.No wind87%30.27 "Hg10 mi
5:00 AM48 °FClear.No wind87%30.27 "Hg10 mi
4:30 AM50 °FClear.No wind88%30.27 "Hg10 mi
4:00 AM50 °FClear.2 mph88%30.27 "Hg10 mi
3:30 AM52 °FPassing clouds.No wind82%30.27 "HgN/A
3:00 AM52 °FPassing clouds.5 mph88%30.27 "HgN/A
2:30 AM52 °FPassing clouds.5 mph82%30.27 "HgN/A
1:30 AM54 °FPassing clouds.6 mph77%30.30 "HgN/A
1:00 AM54 °FPassing clouds.3 mph82%30.30 "HgN/A
12:30 AM54 °FPassing clouds.5 mph77%30.30 "HgN/A
12:00 AM55 °FPassing clouds.5 mph72%30.30 "HgN/A
11:30 PM
Fri, Mar 27
55 °FPassing clouds.5 mph77%30.30 "HgN/A
11:00 PM55 °FPassing clouds.6 mph77%30.33 "HgN/A
10:30 PM57 °FPassing clouds.7 mph72%30.33 "HgN/A
10:00 PM57 °FPassing clouds.8 mph72%30.33 "HgN/A
9:30 PM59 °FPassing clouds.10 mph68%30.33 "HgN/A
9:00 PM61 °FPassing clouds.10 mph63%30.33 "HgN/A
8:30 PM63 °FPassing clouds.6 mph68%30.30 "HgN/A
8:00 PM61 °FPassing clouds.6 mph72%30.30 "HgN/A
7:30 PM63 °FPartly sunny.7 mph64%30.30 "HgN/A
6:30 PM61 °FPartly sunny.12 mph72%30.30 "HgN/A
6:00 PM63 °FPartly sunny.15 mph68%30.30 "HgN/A
5:30 PM63 °FPartly sunny.13 mph64%30.30 "HgN/A
5:00 PM63 °FPartly sunny.12 mph64%30.30 "HgN/A
4:30 PM63 °FPartly sunny.13 mph68%30.30 "HgN/A
4:00 PM64 °FPartly sunny.15 mph60%30.30 "HgN/A
3:30 PM63 °FPartly sunny.14 mph64%30.30 "HgN/A
3:00 PM63 °FPartly sunny.15 mph64%30.30 "HgN/A
2:30 PM64 °FPartly sunny.16 mph60%30.33 "HgN/A
1:30 PM64 °FPartly sunny.15 mph52%30.33 "HgN/A
1:00 PM64 °FScattered clouds.15 mph52%30.36 "HgN/A
12:30 PM66 °FScattered clouds.12 mph49%30.36 "HgN/A
12:00 PM63 °FPartly sunny.12 mph52%30.39 "HgN/A
11:30 AM63 °FPartly sunny.8 mph49%30.39 "HgN/A
11:00 AM63 °FPartly sunny.8 mph52%30.39 "HgN/A
10:30 AM63 °FPartly sunny.7 mph49%30.39 "HgN/A
10:00 AM61 °FPartly sunny.8 mph52%30.39 "HgN/A
9:30 AM61 °FPartly sunny.8 mph52%30.39 "HgN/A
9:00 AM59 °FPartly sunny.12 mph59%30.39 "HgN/A
8:30 AM59 °FPartly sunny.5 mph59%30.39 "HgN/A
Weather by CustomWeather, © 2015

See weather overviewHow to use our weather pages